Location: Cadeilhan
(42.8161°N, 0.3161°E)
Time: 23:29:30
(UTC+00:00)

Helios 1A Rocket - Pass Details

Date: 18 February 2020
Orbit: 563 x 588 km, 98.3° (Epoch: 05 April)

Event Time Altitude Azimuth Distance (km) Brightness Sun altitude
Rises 06:07:44 0° 12° (NNE) 2,827 6.5 -8.9°
Reaches altitude 10° 06:09:54 10° 12° (NNE) 1,920 5.6 -8.5°
Maximum altitude 06:14:04 82° 287° (WNW) 597 2.9 -7.7°
Drops below altitude 10° 06:18:11 10° 198° (SSW) 1,894 5.5 -7.0°
Sets 06:20:19 0° 197° (SSW) 2,785 6.3 -6.6°
